TimeCDT,TemperatureF,Dew PointF,Humidity,Sea Level PressureIn,VisibilityMPH,Wind Direction,Wind SpeedMPH,Gust SpeedMPH,PrecipitationIn,Events,Conditions,WindDirDegrees,DateUTC
12:15 AM,75.9,52.0,43,30.17,10.0,Calm,Calm,-,N/A,,Clear,0,2013-09-02 05:15:00
12:35 AM,73.9,51.8,46,30.17,10.0,Calm,Calm,-,N/A,,Clear,0,2013-09-02 05:35:00
12:55 AM,73.4,51.6,46,30.17,10.0,Calm,Calm,-,N/A,,Clear,0,2013-09-02 05:55:00
1:15 AM,73.8,51.8,46,30.17,10.0,Calm,Calm,-,N/A,,Clear,0,2013-09-02 06:15:00
1:35 AM,70.2,50.0,49,30.17,10.0,Calm,Calm,-,N/A,,Clear,0,2013-09-02 06:35:00
1:55 AM,68.4,50.9,54,30.17,10.0,Calm,Calm,-,N/A,,Clear,0,2013-09-02 06:55:00
2:15 AM,70.7,51.8,51,30.17,10.0,Calm,Calm,-,N/A,,Clear,0,2013-09-02 07:15:00
2:35 AM,66.0,50.9,58,30.17,10.0,WSW,3.5,-,N/A,,Clear,250,2013-09-02 07:35:00
2:55 AM,66.7,51.6,58,30.17,10.0,Calm,Calm,-,N/A,,Clear,0,2013-09-02 07:55:00
3:15 AM,68.0,51.8,56,30.17,10.0,Calm,Calm,-,N/A,,Clear,0,2013-09-02 08:15:00
3:35 AM,67.5,51.6,57,30.17,10.0,Calm,Calm,-,N/A,,Clear,0,2013-09-02 08:35:00
3:55 AM,64.2,51.4,63,30.17,10.0,Calm,Calm,-,N/A,,Clear,0,2013-09-02 08:55:00
4:15 AM,63.9,51.4,64,30.17,10.0,West,3.5,-,N/A,,Clear,270,2013-09-02 09:15:00
4:35 AM,64.4,51.4,63,30.17,10.0,West,4.6,-,N/A,,Clear,280,2013-09-02 09:35:00
4:55 AM,63.7,51.4,64,30.17,10.0,West,6.9,-,N/A,,Clear,260,2013-09-02 09:55:00
5:15 AM,64.4,51.8,64,30.17,10.0,West,8.1,-,N/A,,Clear,270,2013-09-02 10:15:00
5:35 AM,65.3,52.3,63,30.16,10.0,West,6.9,-,N/A,,Clear,260,2013-09-02 10:35:00
5:55 AM,64.6,52.2,64,30.17,10.0,West,6.9,-,N/A,,Clear,270,2013-09-02 10:55:00
6:15 AM,64.9,51.8,62,30.17,10.0,West,8.1,-,N/A,,Clear,270,2013-09-02 11:15:00
6:35 AM,64.6,51.8,63,30.17,10.0,West,5.8,-,N/A,,Clear,260,2013-09-02 11:35:00
6:55 AM,61.9,50.9,67,30.17,7.0,Calm,Calm,-,N/A,,Clear,0,2013-09-02 11:55:00
7:15 AM,62.6,51.1,66,30.18,10.0,SSW,6.9,-,N/A,,Clear,210,2013-09-02 12:15:00
7:35 AM,62.8,51.3,66,30.19,10.0,SW,4.6,-,N/A,,Clear,230,2013-09-02 12:35:00
7:55 AM,64.8,52.0,63,30.19,10.0,WSW,4.6,-,N/A,,Clear,250,2013-09-02 12:55:00
8:15 AM,66.9,52.7,60,30.20,10.0,WSW,3.5,-,N/A,,Clear,250,2013-09-02 13:15:00
8:35 AM,67.3,52.7,59,30.20,10.0,West,3.5,-,N/A,,Clear,260,2013-09-02 13:35:00
8:55 AM,68.9,53.6,58,30.20,10.0,South,4.6,-,N/A,,Clear,190,2013-09-02 13:55:00
9:15 AM,71.6,53.8,53,30.21,10.0,Calm,Calm,-,N/A,,Clear,0,2013-09-02 14:15:00
9:35 AM,74.5,53.8,48,30.21,10.0,Calm,Calm,-,N/A,,Clear,0,2013-09-02 14:35:00
9:55 AM,74.8,53.6,47,30.22,10.0,Calm,Calm,-,N/A,,Clear,0,2013-09-02 14:55:00
10:15 AM,79.7,53.8,41,30.23,10.0,Calm,Calm,-,N/A,,Clear,0,2013-09-02 15:15:00
10:35 AM,82.6,53.1,36,30.24,10.0,ENE,8.1,-,N/A,,Clear,60,2013-09-02 15:35:00
10:55 AM,83.1,52.9,35,30.24,10.0,ENE,6.9,-,N/A,,Clear,70,2013-09-02 15:55:00
11:15 AM,84.6,53.2,34,30.24,10.0,ENE,11.5,17.3,N/A,,Clear,70,2013-09-02 16:15:00
11:35 AM,86.2,53.2,32,30.24,10.0,NE,12.7,21.9,N/A,,Clear,50,2013-09-02 16:35:00
11:55 AM,86.2,53.2,32,30.24,10.0,ENE,12.7,18.4,N/A,,Clear,70,2013-09-02 16:55:00
12:15 PM,85.5,53.1,33,30.24,10.0,ENE,11.5,20.7,N/A,,Clear,60,2013-09-02 17:15:00
12:35 PM,86.4,53.8,33,30.23,10.0,East,15.0,23.0,N/A,,Clear,80,2013-09-02 17:35:00
12:55 PM,86.4,53.8,33,30.23,10.0,ENE,16.1,21.9,N/A,,Clear,70,2013-09-02 17:55:00
1:15 PM,87.6,53.6,31,30.22,10.0,East,16.1,23.0,N/A,,Clear,80,2013-09-02 18:15:00
1:35 PM,86.2,53.6,33,30.22,10.0,East,12.7,21.9,N/A,,Scattered Clouds,80,2013-09-02 18:35:00
1:55 PM,86.9,53.6,32,30.22,10.0,ENE,16.1,24.2,N/A,,Scattered Clouds,70,2013-09-02 18:55:00
2:15 PM,84.4,53.6,35,30.22,10.0,ENE,13.8,23.0,N/A,,Clear,70,2013-09-02 19:15:00
2:35 PM,82.6,54.7,38,30.22,10.0,ENE,12.7,21.9,N/A,,Clear,70,2013-09-02 19:35:00
2:55 PM,82.8,55.2,39,30.21,10.0,NE,12.7,18.4,N/A,,Clear,50,2013-09-02 19:55:00
3:15 PM,81.5,55.4,41,30.21,10.0,ENE,12.7,-,N/A,,Clear,60,2013-09-02 20:15:00
3:35 PM,80.4,56.1,43,30.20,10.0,NE,11.5,16.1,N/A,,Clear,50,2013-09-02 20:35:00
3:55 PM,79.7,56.3,44,30.19,10.0,ENE,10.4,-,N/A,,Clear,60,2013-09-02 20:55:00
4:15 PM,81.0,54.7,40,30.17,10.0,NNE,6.9,-,N/A,,Clear,30,2013-09-02 21:15:00
4:35 PM,82.8,54.7,38,30.16,10.0,East,6.9,-,N/A,,Clear,100,2013-09-02 21:35:00
4:55 PM,83.7,53.6,35,30.15,10.0,ESE,3.5,-,N/A,,Clear,110,2013-09-02 21:55:00
5:15 PM,85.3,53.4,33,30.15,10.0,ENE,8.1,16.1,N/A,,Scattered Clouds,60,2013-09-02 22:15:00
5:35 PM,85.1,53.8,34,30.15,10.0,ENE,9.2,16.1,N/A,,Clear,70,2013-09-02 22:35:00
5:55 PM,85.5,54.5,35,30.15,10.0,NE,8.1,-,N/A,,Clear,40,2013-09-02 22:55:00
6:15 PM,84.2,54.7,36,30.14,10.0,NE,8.1,-,N/A,,Clear,50,2013-09-02 23:15:00
6:35 PM,85.8,54.7,34,30.13,10.0,NE,6.9,-,N/A,,Clear,40,2013-09-02 23:35:00
6:55 PM,84.2,55.4,37,30.13,10.0,ENE,10.4,-,N/A,,Clear,70,2013-09-02 23:55:00
7:15 PM,84.6,55.6,37,30.13,10.0,NE,9.2,-,N/A,,Clear,50,2013-09-03 00:15:00
7:35 PM,84.2,55.6,37,30.13,10.0,NE,12.7,-,N/A,,Scattered Clouds,40,2013-09-03 00:35:00
7:55 PM,82.4,55.4,39,30.14,10.0,NE,13.8,17.3,N/A,,Scattered Clouds,40,2013-09-03 00:55:00
8:15 PM,81.3,56.1,42,30.15,10.0,ENE,10.4,-,N/A,,Clear,60,2013-09-03 01:15:00
8:35 PM,79.9,55.8,43,30.15,10.0,ENE,8.1,-,N/A,,Clear,70,2013-09-03 01:35:00
8:55 PM,78.8,55.8,45,30.16,10.0,ENE,6.9,-,N/A,,Clear,70,2013-09-03 01:55:00
9:15 PM,77.4,55.8,47,30.16,10.0,East,4.6,-,N/A,,Clear,90,2013-09-03 02:15:00
9:35 PM,76.5,55.9,49,30.17,10.0,ENE,3.5,-,N/A,,Clear,70,2013-09-03 02:35:00
9:55 PM,74.7,56.1,52,30.18,10.0,NNW,5.8,-,N/A,,Clear,340,2013-09-03 02:55:00
10:15 PM,74.1,57.0,55,30.19,10.0,North,3.5,-,N/A,,Clear,360,2013-09-03 03:15:00
10:35 PM,73.0,56.8,57,30.19,10.0,West,3.5,-,N/A,,Clear,280,2013-09-03 03:35:00
10:55 PM,73.6,57.2,56,30.19,10.0,Calm,Calm,-,N/A,,Clear,0,2013-09-03 03:55:00
11:15 PM,72.7,57.2,58,30.20,10.0,NW,4.6,-,N/A,,Clear,310,2013-09-03 04:15:00
11:35 PM,71.8,57.2,60,30.20,10.0,Calm,Calm,-,N/A,,Clear,0,2013-09-03 04:35:00
11:55 PM,73.4,57.6,58,30.21,10.0,ESE,3.5,-,N/A,,Clear,120,2013-09-03 04:55:00